MPEC 2002-V68 : 2000 CM33

The following Minor Planet Electronic Circular may be linked-to from your own Web pages, but must not otherwise be redistributed electronically.


Read MPEC 2002-V67 Read MPEC 2002-V69


M.P.E.C. 2002-V68                                Issued 2002 Nov. 14, 20:14 UT

     The Minor Planet Electronic Circulars contain information on unusual
         minor planets and routine data on comets.  They are published
   on behalf of Commission 20 of the International Astronomical Union by the
          Minor Planet Center, Smithsonian Astrophysical Observatory,
                          Cambridge, MA 02138, U.S.A.

             Prepared using the Tamkin Foundation Computer Network

                              MPC@CFA.HARVARD.EDU
          URL http://cfa-www.harvard.edu/iau/mpc.html  ISSN 1523-6714

                                   2000 CM33

                           Revision to MPEC 2000-C27

Additional Observations:
     K00C33M  C2002 11 13.44112 06 00 53.71 -05 45 11.7          21.9 V      291
     K00C33M  C2002 11 13.44807 06 00 53.65 -05 45 18.1          22.3 V      291
     K00C33M  C2002 11 13.45497 06 00 53.60 -05 45 23.9          22.2 V      291
     K00C33M  C2002 11 14.44275 06 00 50.06 -06 00 25.2          22.6 V      291
     K00C33M  C2002 11 14.44646 06 00 50.00 -06 00 29.5          22.4 V      291
     K00C33M  C2002 11 14.45019 06 00 49.99 -06 00 32.3          22.6 V      291

Observer details:
291 LPL/Spacewatch II.  Observer A. S. Descour.  1.8-m Spacewatch Telescope
    + CCD.

First and last observations above in comparison with prediction:
Residuals in seconds of arc, reference and Delta-T
021113 291  0.2+  0.3+    021114 291  0.0   0.5+    MPO  2735   -0.00007 day

Orbital elements:
2000 CM33                                                            PHA 0.042A
Epoch 2002 Nov. 22.0 TT = JDT 2452600.5                 MPC
M 275.26313              (2000.0)            P               Q
n   0.64847524     Peri.   50.07288     -0.98723578     +0.06228571
a   1.3219259      Node   132.95197     -0.09979198     -0.95920330
e   0.2717530      Incl.   11.55262     +0.12412524     -0.27577077
P   1.52           H   21.3           G   0.15           U   2
Residuals in seconds of arc
000110 704  0.3-  0.7-    000204 681  0.1+  0.1-    000206 422  0.1-  0.0
000110 704  0.9-  1.4-    000204 681  0.2+  0.3-    000206 422  0.2-  0.3-
000110 704  0.5-  0.5+    000204 681  0.6+  0.3+    000206 422  0.1-  0.1-
000110 704  0.0   1.3-    000204 681  0.7+  0.3+    000206 596  0.6-  0.2-
000202 703  0.1+  0.5+    000204 681  0.8+  0.3+    000206 596  0.5-  0.2+
000202 703  0.2-  0.7+    000204 422  0.2-  0.2+    000206 596  0.4-  0.1+
000202 703  0.2+  0.8+    000204 422  0.2-  0.3+    000206 596  0.0   0.1+
000202 703  0.4-  0.6+    000204 422  0.2-  0.2+    000207 300  1.1-  1.0-
000202 557  0.5+  0.5+    000204 596  0.4-  1.1-    000207 300  0.7-  0.3-
000202 557  0.4+  0.2+    000204 596  0.4-  0.5-    000207 300  0.6-  0.8-
000202 557  0.3+  0.6+    000204 596  0.1-  0.2-    000207 300  1.7-  0.5-
000202 557  0.4+  0.7+    000204 587  0.6-  1.3-    000207 300  1.4-  0.6+
000202 557  0.4+  0.5+    000204 587  0.8+  0.3-    000207 300  2.2-  0.2-
000202 557  0.3+  0.3+    000204 587  0.7+  0.5+    000208 750  1.1-  0.4-
000203 860  0.5-  0.7-    000205 750  0.3+  0.3-    000208 750  2.1-  1.5-
000203 860  0.1+  0.2+    000205 750  0.0   0.2-    000208 750  2.3-  1.8-
000203 860  0.6+  0.6+    000205 750  0.5-  0.6+    000209 349  0.2-  0.1-
000203 750  0.7-  1.0-    000205 739  0.1+  0.3-    000209 349  0.4-  0.2-
000203 750  0.8-  0.8+    000205 739  0.3+  0.1-    000209 349  0.6+  0.0
000203 750  0.4-  0.1+    000205 739  0.9+  0.0     000209 349  0.1+  0.8+
000203 750  1.2-  0.1-    000205 681  0.4+  0.5+    000209 349  0.2+  0.2+
000203 750  0.2+  0.7+    000205 681  0.5+  0.7+    000210 658  0.2-  0.1-
000203 750  0.9+  1.9+    000205 681  0.0   0.4+    000210 658  0.1+  1.3-
000203 704  0.1+  0.4+    000205 681  0.0   0.6+    000210 658  0.4-  0.2+
000203 750  2.6+  2.0+    000205 903  0.3-  0.0     000210 540  0.5-  0.2-
000203 750  1.2+  2.0+    000205 903  0.3-  0.5+    000210 540  0.7-  0.3-
000203 750  0.9-  0.2-    000205 903  0.3+  0.2+    000210 540  0.8-  0.9-
000203 704  0.1+  0.6+    000205 422  0.4-  0.1-    000210 540  0.5-  0.2-
000203 750  0.1+  0.8+    000205 422  0.4-  0.2+    000211 118  0.5-  0.1+
000203 750  0.7-  0.2-    000205 422  0.4-  0.0     000211 118  0.3-  0.1+
000203 704  0.4+  0.6+    000205 402  0.2-  0.6-    000211 118  0.0   0.3+
000203 704  0.4+  0.5+    000205 402  0.0   0.4-    000211 355  0.2+  0.4+
000203 670  0.3+  0.3+    000205 402  0.4+  0.1-    000211 355  0.0   0.1+
000203 704  0.5+  0.6+    000205 402  0.3+  0.4-    000211 355  0.5-  0.6-
000203 670  0.3-  0.4-    000205 151  0.3+  1.0-    000211 611  1.1-  0.8-
000203 670  0.1+  0.7-    000205 151  1.1+  0.7-    000211 611  0.0   0.3-
000203 422  0.0   0.2-    000205 151  1.0+  1.1-    000211 611  0.2-  0.2-
000203 422  0.2-  0.1+    000205 151  1.0+  1.1-    000211 611  0.1-  0.0
000203 422  0.1+  0.1+    000205 151  1.8+  0.0     000211 611  0.1+  0.3+
000203 046  0.1+  0.5+    000205 151  0.3+  2.3-    000212 127 (8.2+  3.4+)
000203 046  0.2+  0.5+    000205 611  0.3+  0.5+    000212 127 (8.2+  2.6+)
000203 046  0.3+  0.7+    000205 611  0.3+  0.3+    000213 104  0.3-  0.3+
000203 046  0.1+  0.7+    000205 611  0.4+  0.5+    000213 104  0.7-  0.1+
000203 046  0.2+  0.7+    000205 611  0.9+  0.4+    000213 104  0.0   0.4+
000203 046  0.4+  0.8+    000205 611  0.0   0.5+    000213 587  0.3+  0.2-
000203 596  0.9+  0.7-    000205 611  0.6+  0.7+    000213 587  0.2-  0.4+
000203 596  1.9-  0.3-    000205 557  0.3-  0.8-    000216 704  0.0   0.4+
000203 596  1.2-  0.8-    000205 557  0.1-  0.6-    000216 704  0.5-  0.8+
000204 106  1.1-  0.4-    000205 557  0.1-  0.5-    000216 704  0.6-  0.8+
000204 106  0.2+  0.9-    000206 557  0.2-  0.7-    000612 413  0.7+  0.1+
000204 106  1.4+  0.5+    000206 557  0.2-  0.8-    000612 413  1.0+  1.0-
000204 104  0.2+  0.2+    000206 858  0.3+  0.7-    000616 658  0.6-  0.6+
000204 104  0.4+  0.7-    000206 858  0.4-  0.2-    000616 658  0.1-  0.2+
000204 104  0.1+  0.8-    000206 858  0.1-  0.7-    000616 658  0.7-  0.1+
000204 104  0.1+  0.3-    000206 858  0.1-  0.4-    000616 658  0.2+  0.7+
000204 104  0.7-  1.2-    000206 858  0.4+  0.0     000722 413  0.9-  0.8+
000204 651  0.6-  0.1-    000206 670  0.1-  0.5-    021113 291  0.2+  0.2+
000204 651  0.6-  0.0     000206 681  0.1-  0.2-    021113 291  0.1+  0.1+
000204 651  0.5-  0.1+    000206 681  0.1-  0.1-    021113 291  0.1+  0.6+
000204 681  0.4-  0.8+    000206 681  0.2-  0.3-    021114 291  0.2-  0.8+
000204 681  0.1-  0.7+    000206 681  0.0   0.1-    021114 291  0.5-  0.1-
000204 681  0.3+  0.2-    000206 670  0.2-  0.5-    021114 291  0.1-  0.5+

Ephemeris:
2000 CM33                a,e,i = 1.32, 0.27, 12                  q = 0.9627
Date    TT    R. A. (2000) Decl.     Delta      r     Elong.  Phase     V
2002 11 12    06 00.89   -05 23.0    0.558    1.422   131.5    31.4    22.1
2002 11 22    05 58.55   -07 51.8    0.484    1.385   137.7    28.7    21.7
2002 12 02    05 50.07   -09 58.6    0.421    1.346   142.8    26.3    21.3
2002 12 12    05 35.13   -11 14.1    0.369    1.305   145.4    25.4    20.9
2002 12 22    05 14.95   -11 04.3    0.328    1.264   143.8    27.4    20.6
2003 01 01    04 52.33   -09 02.4    0.299    1.221   137.9    32.7    20.5
2003 01 11    04 31.26   -05 00.4    0.279    1.179   129.1    40.3    20.5
2003 01 21    04 15.04   +00 44.8    0.266    1.138   119.3    48.9    20.5
2003 01 31    04 05.02   +07 47.2    0.257    1.098   109.6    57.7    20.6
2003 02 10    04 01.29   +15 45.8    0.251    1.062   100.6    66.0    20.8
2003 02 20    04 02.92   +24 27.9    0.244    1.029    92.6    73.7    20.9
2003 03 02    04 08.71   +33 47.7    0.237    1.002    85.7    80.6    21.0
2003 03 12    04 17.89   +43 42.1    0.230    0.981    80.2    86.4    21.1
2003 03 22    04 29.74   +54 04.0    0.224    0.968    76.2    90.8    21.2
2003 04 01    04 44.81   +64 39.2    0.219    0.963    74.2    93.2    21.2
2003 04 11    05 08.9    +75 11.3    0.215    0.967    74.4    93.3    21.2
2003 04 21    06 40      +85 08.0    0.212    0.979    76.9    90.9    21.1
2003 05 01    15 08.3    +83 27.7    0.210    0.999    81.6    86.4    20.9
2003 05 11    16 05.1    +73 32.5    0.209    1.025    88.3    79.9    20.7
2003 05 21    16 18.95   +62 57.6    0.209    1.057    96.8    71.9    20.5
2003 05 31    16 24.40   +51 31.9    0.212    1.094   106.6    62.7    20.4
2003 06 10    16 27.68   +39 12.8    0.221    1.133   117.0    53.0    20.2
2003 06 20    16 31.31   +26 38.4    0.240    1.174   126.2    44.3    20.2
2003 06 30    16 36.42   +14 49.2    0.271    1.216   132.3    38.2    20.4
2003 07 10    16 43.84   +04 35.9    0.316    1.258   134.3    35.4    20.8
2003 07 20    16 53.75   -03 40.8    0.375    1.300   132.6    35.1    21.2
2003 07 30    17 06.04   -10 08.4    0.446    1.341   128.8    36.2    21.7
2003 08 09    17 20.58   -15 04.9    0.527    1.380   124.0    37.5    22.1

Brian G. Marsden             (C) Copyright 2002 MPC           M.P.E.C. 2002-V68

Read MPEC 2002-V67 Read MPEC 2002-V69


Our Web policy. Index to the CBAT/MPC/ICQ pages.

MPC